Regional Weather Roundup
Issued by NWS

Home | Current Version | Previous Version | Graphics & Text | Print | Product List | Glossary On
Versions: 1 2 3 4 5 6 7 8 9 10 11 12 13 14 15 16 17 18 19 20 21 22 23 24 25 26 27 28 29 30 31 32 33 34 35 36 37 38 39 40 41 42 43 44 45 46 47 48 49 50
000
ASUS45 KCYS 310610
RWRWY

WYOMING REGIONAL WEATHER ROUNDUP
NATIONAL WEATHER SERVICE CHEYENNE WY
1200 AM MDT THU JUL 31 2014

NOTE:  "FAIR" INDICATES FEW OR NO CLOUDS BELOW 12,000 FEET
WITH NO SIGNIFICANT WEATHER AND/OR OBSTRUCTIONS TO VISIBILITY.

WYZ001-310700-
YELLOWSTONE NATIONAL PARK

CITY           SKY/WX    TMP DP  RH WIND       PRES   REMARKS
LK YELLOWSTONE   N/A     48  41  76 NW3       30.48S
6HR MIN TEMP:  48; 6HR MAX TEMP:  70;

W YELLOWSTONE  NOT AVBL

$$
WYZ002>013-054>058-071-098>099-310700-
NORTHERN WYOMING

CITY           SKY/WX    TMP DP  RH WIND       PRES   REMARKS
JACKSON        MOCLDY    57  46  67 CALM      30.38F
CODY           NOT AVBL
GREYBULL       PTCLDY    68  42  38 E6        30.18S
6HR MIN TEMP:  68; 6HR MAX TEMP:  86;

WORLAND        PTCLDY    65  46  50 SW10      30.21S
6HR MIN TEMP:  65; 6HR MAX TEMP:  83;

SHERIDAN       PTCLDY    56  44  64 S5        30.21S
6HR MIN TEMP:  56; 6HR MAX TEMP:  85;

BUFFALO        PTCLDY    64  35  34 W9        30.29F
6HR MIN TEMP:  63; 6HR MAX TEMP:  82;

GILLETTE       MOCLDY    54  47  77 S5        30.25R
6HR MIN TEMP:  54; 6HR MAX TEMP:  82;

HULETT         FAIR      63  45  51 MISG      30.25
NEWCASTLE      FAIR      61  41  48 CALM      30.23

$$
WYZ014>020-022>026-101>103-310700-
CENTRAL WYOMING

CITY           SKY/WX    TMP DP  RH WIND       PRES   REMARKS
BIG PINEY      PTCLDY    48  44  86 NE3       30.44S
6HR MIN TEMP:  48; 6HR MAX TEMP:  61;

PINEDALE       CLEAR     45  43  93 NW6       30.45R
DUBOIS         FAIR      50  32  50 NW6       30.43F
LANDER         PTCLDY    63  44  50 SW7       30.31S
6HR MIN TEMP:  61; 6HR MAX TEMP:  73;

RIVERTON       CLEAR     62  41  46 NW12      30.31F
6HR MIN TEMP:  61; 6HR MAX TEMP:  76;

CASPER         MOCLDY    59  42  53 W7        30.30R
6HR MIN TEMP:  59; 6HR MAX TEMP:  77;

DOUGLAS        MOCLDY    62  50  64 CALM      30.28R
6HR MIN TEMP:  61; 6HR MAX TEMP:  78;


$$
WYZ021-027>030-104>119-310700-
SOUTHERN WYOMING

CITY           SKY/WX    TMP DP  RH WIND       PRES   REMARKS
EVANSTON       CLEAR     57  50  77 NE6       30.41R
6HR MIN TEMP:  56; 6HR MAX TEMP:  61;

KEMMERER       PTCLDY    54  45  71 NE9       30.45R
FORT BRIDGER   MOCLDY    56  53  89 NE7       30.44S
ROCK SPRINGS   MOCLDY    55  43  63 N3        30.39F
6HR MIN TEMP:  55; 6HR MAX TEMP:  61;

DIXON          CLOUDY    59  50  71 E3        30.35S
RAWLINS        CLOUDY    55  49  80 NE8       30.38S
6HR MIN TEMP:  55; 6HR MAX TEMP:  63;

SARATOGA       FAIR      54  50  87 CALM      30.40S
LARAMIE        CLOUDY    53  51  93 S6        30.40F
6HR MIN TEMP:  53; 6HR MAX TEMP:  57;

CHEYENNE       CLOUDY    58  52  80 W6        30.35F
6HR MIN TEMP:  57; 6HR MAX TEMP:  60;

TORRINGTON     CLOUDY    63  57  81 SW3       30.22F
6HR MIN TEMP:  63; 6HR MAX TEMP:  75;

PINE BLUFFS    FAIR      55  55 100 S5        30.32S

$$



USA.gov is the U.S. government's official web portal to all federal, state and local government web resources and services.